Wind_Speed
73 71 76 65 62 60 54 45 46 44 54 69 77 84 80 77 74 74 69 64 62 54 52 54 55 52 50 49 48 48 51 53 54 52 50 51 51 53 53 52 52 54 55 55
84 78 77 77 68 62 61 56 50 48 45 53 66 84 86 84 83 77 75 69 68 65 57 56 57 56 56 52 51 52 56 57 59 58 55 54 57 56 55 53 54 55 57 57
86 85 85 89 64 69 67 64 60 48 42 54 65 69 81 87 88 83 80 79 73 69 66 63 61 63 61 60 56 55 59 62 63 64 61 59 60 60 58 59 60 60 61 60
95 92 98 72 76 76 76 69 63 54 53 56 57 64 68 84 93 90 84 81 79 73 69 67 66 65 65 64 63 61 63 67 68 69 69 64 63 63 61 63 66 69 68 60
105 99 91 85 76 83 85 72 76 65 58 56 58 61 63 67 86 92 88 91 87 79 78 75 70 69 66 67 69 68 67 70 72 72 73 70 68 64 64 63 66 53 48 73
111 105 94 78 87 93 86 81 79 69 58 56 51 53 55 65 69 79 91 91 93 87 86 80 79 75 75 73 72 71 72 74 75 74 74 74 72 69 67 66 64 73 80 79
111 104 95 91 94 92 89 85 79 70 60 56 56 60 57 63 73 74 81 93 95 97 94 88 84 80 82 82 78 78 77 74 76 77 76 76 74 72 72 73 74 77 80 81
107 105 100 97 96 93 88 81 76 70 52 49 46 47 54 59 63 72 78 88 96 99 98 95 91 87 85 85 84 83 82 80 78 80 82 80 74 76 78 77 81 84 84 83
99 105 104 98 87 86 88 79 74 60 44 42 46 49 53 60 64 66 72 78 85 91 100 98 96 92 92 91 88 90 89 85 85 83 84 83 79 81 82 84 84 84 86 87
95 89 92 93 86 80 73 69 65 55 46 42 44 48 46 52 61 62 59 61 70 79 85 89 94 96 97 97 94 89 88 89 90 90 87 86 82 86 86 85 86 87 87 83
83 76 77 78 57 49 58 71 54 43 43 49 55 53 51 49 41 22 17 24 39 56 70 79 85 88 96 98 97 93 89 85 89 91 88 86 87 88 86 86 86 85 85 84
79 67 57 59 66 39 50 57 53 57 58 60 52 50 35 27 22 8 15 34 59 60 51 62 70 74 80 86 93 95 92 91 89 85 83 85 86 85 85 85 85 82 80 78
73 62 51 53 64 67 56 55 53 57 57 50 42 30 33 33 31 35 36 45 73 55 56 44 47 54 61 70 80 81 87 85 86 86 85 86 85 84 83 82 81 80 78 77
65 58 49 55 59 57 55 56 58 55 41 36 33 35 41 39 43 46 38 36 66 73 52 48 37 44 55 62 67 72 75 78 78 78 78 81 83 80 76 71 70 70 69 65
55 58 48 39 51 55 57 58 55 51 42 37 30 44 49 46 50 58 57 52 48 62 56 51 48 48 47 51 56 62 64 67 68 70 75 74 72 68 67 58 65 69 66 63
61 62 58 59 59 55 46 51 50 46 49 41 35 52 58 57 56 51 57 57 60 50 48 43 39 40 40 44 48 53 56 57 55 55 55 58 54 52 54 53 59 60 64 70
58 62 64 66 54 52 51 45 42 48 47 42 36 46 63 66 66 62 57 53 56 64 64 66 61 53 38 31 28 37 38 44 39 51 51 61 65 61 55 61 59 63 70 79
61 58 58 61 58 56 51 49 43 36 30 38 39 45 62 73 73 68 67 59 61 59 54 58 45 51 45 36 32 48 57 59 45 46 56 63 57 55 53 59 64 69 76 79
58 59 60 57 59 64 59 57 47 37 32 42 42 46 45 58 72 72 72 65 43 50 41 45 44 47 53 51 46 52 54 54 63 69 67 68 66 63 56 55 57 62 69 70
57 60 59 53 53 55 56 55 53 46 36 44 43 41 38 40 43 46 51 52 46 43 37 46 52 47 47 47 43 47 47 46 44 44 50 58 58 61 59 64 68 70 72 76
63 62 60 59 57 58 59 59 52 53 48 46 49 46 48 45 44 44 44 39 44 48 40 45 41 41 42 44 44 46 43 49 52 56 56 55 60 63 70 72 71 75 79 87
64 60 64 74 70 63 60 62 61 61 58 54 58 57 54 53 52 51 47 48 47 50 50 53 51 54 55 56 53 48 53 56 58 62 61 64 66 72 75 79 83 84 85 86
59 62 61 62 65 66 66 67 70 70 66 58 58 60 64 59 59 61 61 60 68 66 64 65 57 55 53 57 56 60 57 59 64 72 72 78 77 82 84 85 88 91 89 90
65 66 69 67 68 67 68 68 69 69 67 65 67 64 66 68 66 61 66 71 75 74 67 63 62 64 61 62 63 67 69 69 71 72 75 78 84 87 87 89 90 93 91 91
61 60 65 65 66 69 69 63 63 65 66 65 64 65 68 66 65 71 77 72 73 80 75 75 79 79 77 78 81 77 78 78 81 83 85 87 87 86 89 90 89 88 91 95
67 68 70 68 70 68 66 66 63 64 67 66 66 68 71 71 73 77 76 77 78 79 77 80 81 83 84 85 85 86 90 92 94 93 89 89 89 87 90 91 93 99 103 102
73 74 75 76 78 78 80 79 75 75 73 74 70 71 76 79 80 82 82 85 84 84 86 85 85 84 86 90 93 92 92 94 95 94 98 99 97 98 98 100 102 104 106 107
Wind_Direction
261 254 258 265 260 261 265 263 259 257 242 230 237 237 237 238 238 240 242 242 244 236 239 245 249 250 254 258 261 266 270 274 277 281 285 288 291 294 299 304 308 310 310 312
264 256 255 258 266 270 265 264 270 273 254 240 233 243 236 237 238 239 242 240 242 245 240 242 248 252 256 255 260 265 269 272 276 278 282 287 289 292 296 301 304 305 307 308
259 254 252 249 268 266 268 265 262 270 256 250 234 243 242 239 241 240 242 242 240 241 243 242 242 248 252 256 259 262 266 270 274 278 280 282 287 290 296 301 303 304 304 306
256 247 248 258 254 258 261 262 263 258 263 254 246 238 249 240 242 240 243 245 245 245 246 248 246 246 251 256 258 260 265 270 272 275 279 283 285 289 297 301 303 302 302 305
252 250 250 249 252 254 253 258 259 261 265 266 254 251 243 252 243 244 241 244 245 243 244 246 249 251 250 252 257 259 262 266 270 273 278 282 284 290 294 299 306 308 298 308
249 249 250 249 247 251 256 258 261 267 266 258 249 245 243 242 248 247 239 245 248 245 246 244 247 249 251 251 253 257 260 263 268 273 277 281 285 289 292 294 293 291 298 302
241 243 244 243 246 250 253 259 264 269 274 265 253 245 245 251 245 247 246 240 244 248 247 246 245 246 251 254 256 257 259 262 267 272 275 278 282 287 289 289 291 293 296 299
238 238 238 241 244 249 254 260 264 267 265 253 247 241 243 244 247 250 249 244 243 245 249 250 249 248 246 254 257 259 262 265 267 270 274 277 281 284 286 289 291 294 298 301
237 239 238 240 244 247 256 258 260 265 253 243 244 246 249 248 246 247 252 254 251 247 248 248 251 252 254 252 250 256 260 263 265 268 272 276 278 281 283 286 289 294 295 297
229 234 240 244 247 248 247 252 260 256 240 239 241 239 255 256 253 256 262 264 264 263 256 253 251 251 251 254 255 254 257 261 265 267 271 273 277 279 283 287 290 291 293 295
223 221 231 234 238 259 250 250 243 239 236 243 253 257 259 256 252 251 269 292 294 277 264 259 254 250 250 252 255 258 259 263 264 264 268 273 276 279 282 285 287 289 292 294
215 214 220 223 217 220 241 238 238 241 245 249 253 254 247 220 188 132 348 304 288 288 281 266 258 255 254 252 253 255 256 256 261 265 270 270 273 276 279 282 286 289 290 292
199 197 201 201 210 222 227 233 233 237 237 248 246 226 196 178 161 132 139 245 279 271 276 272 258 256 255 252 251 254 257 259 259 264 269 271 272 275 279 281 285 288 288 291
199 190 195 210 213 216 221 226 228 230 240 238 237 203 192 182 159 136 152 191 222 261 258 259 266 264 255 251 251 253 257 259 262 263 264 268 273 277 279 284 287 286 293 298
191 194 187 204 223 219 220 225 229 236 242 242 218 199 193 189 167 164 181 200 216 232 252 266 266 262 260 255 255 254 256 260 262 264 270 272 272 271 272 283 281 285 288 298
192 192 193 201 211 215 217 227 232 240 243 245 215 202 195 196 191 202 211 222 225 231 240 254 261 267 264 261 260 259 257 255 261 268 270 274 262 267 272 266 276 286 292 294
189 197 199 204 203 207 217 226 234 236 239 235 229 207 203 206 212 217 216 225 232 237 243 250 254 258 266 250 255 270 258 264 258 283 273 267 273 269 269 269 277 283 287 288
194 196 202 207 215 218 223 220 218 229 244 224 222 220 209 207 215 221 225 229 231 235 250 248 253 249 246 248 232 247 252 252 250 252 258 266 265 267 267 275 277 279 282 285
195 198 204 213 217 216 212 222 224 237 241 228 223 220 223 218 219 223 226 235 235 239 239 248 254 257 243 233 237 243 245 248 246 252 255 259 262 268 270 274 282 285 281 284
198 202 206 206 203 204 210 216 227 241 234 217 213 214 217 221 215 222 227 227 228 232 228 245 253 246 252 246 242 246 246 251 252 257 270 272 273 275 279 285 284 281 282 286
210 214 217 216 210 214 218 226 247 253 251 245 220 231 231 225 222 224 226 219 230 226 236 241 242 250 249 243 249 249 260 262 262 268 271 267 269 274 274 275 279 278 280 288
209 218 222 222 225 230 239 242 248 251 249 251 238 238 232 227 231 228 229 233 235 239 244 245 239 242 251 248 254 262 264 267 266 269 269 270 271 270 272 276 278 279 281 289
216 222 223 229 232 237 240 243 245 245 252 249 241 240 235 239 240 239 241 239 238 246 251 248 245 251 251 246 258 268 266 265 264 265 260 262 268 270 273 277 281 283 287 291
225 227 230 230 230 234 236 240 246 248 249 254 245 245 242 244 242 248 244 244 244 246 247 248 252 253 257 253 257 259 258 259 263 265 265 267 271 273 277 280 280 282 287 289
222 226 230 235 240 245 245 244 248 253 251 246 243 246 247 247 254 254 253 251 250 247 247 248 253 255 256 256 258 257 263 265 269 273 273 276 278 277 282 287 288 288 288 288
229 229 230 234 237 239 240 243 249 251 255 251 248 251 252 252 253 254 256 257 255 256 258 258 258 261 264 266 266 269 271 273 274 278 281 282 281 278 278 281 281 286 289 291
232 234 237 239 240 242 247 249 249 248 248 250 248 248 252 255 254 254 256 257 257 257 256 256 260 263 264 265 266 267 269 271 272 272 273 276 276 275 278 281 282 283 286 289
Height
10778 10782 10773 10791 10797 10805 10811 10822 10824 10835 10838 10846 10840 10842 10855 10858 10867 10871 10880 10890 10893 10906 10911 10912 10915 10919 10923 10928 10929 10927 10924 10923 10922 10923 10924 10923 10923 10921 10919 10917 10915 10912 10909 10905
10754 10763 10762 10766 10778 10788 10797 10805 10812 10816 10829 10834 10831 10811 10833 10841 10845 10858 10863 10874 10880 10888 10897 10901 10903 10906 10909 10914 10917 10918 10914 10911 10909 10910 10913 10913 10910 10910 10909 10910 10908 10905 10899 10895
10735 10741 10740 10734 10776 10771 10776 10787 10794 10804 10813 10800 10813 10804 10813 10826 10829 10842 10848 10852 10864 10872 10881 10888 10894 10892 10894 10898 10903 10906 10902 10900 10899 10896 10899 10901 10899 10897 10897 10897 10895 10892 10887 10884
10706 10712 10701 10761 10752 10753 10754 10765 10775 10786 10788 10788 10797 10802 10793 10808 10808 10823 10841 10847 10853 10862 10869 10875 10879 10884 10885 10887 10890 10893 10891 10886 10886 10885 10885 10890 10889 10887 10889 10886 10882 10876 10872 10871
10668 10686 10707 10724 10739 10727 10724 10752 10746 10765 10776 10777 10782 10790 10796 10791 10792 10806 10823 10822 10831 10841 10850 10856 10865 10871 10875 10876 10877 10880 10881 10876 10873 10873 10872 10874 10875 10879 10878 10878 10874 10855 10853 10856
10647 10663 10686 10723 10706 10695 10712 10725 10731 10750 10761 10766 10766 10768 10778 10775 10772 10776 10802 10807 10813 10825 10828 10840 10846 10857 10858 10860 10862 10867 10866 10865 10863 10862 10861 10860 10860 10863 10864 10864 10864 10856 10847 10843
10620 10642 10667 10680 10673 10681 10692 10709 10721 10736 10745 10748 10752 10757 10761 10759 10762 10764 10771 10790 10792 10796 10807 10820 10828 10838 10841 10841 10848 10849 10849 10854 10852 10849 10847 10846 10849 10850 10847 10844 10842 10839 10835 10829
10601 10621 10636 10645 10651 10665 10683 10698 10710 10719 10726 10728 10732 10737 10742 10747 10749 10748 10753 10761 10776 10783 10788 10797 10805 10814 10826 10828 10829 10829 10833 10838 10840 10835 10830 10833 10840 10833 10828 10828 10823 10818 10815 10811
10583 10598 10613 10627 10640 10658 10666 10688 10695 10703 10706 10710 10715 10718 10723 10733 10741 10743 10743 10745 10755 10766 10771 10782 10789 10796 10796 10804 10813 10812 10815 10821 10821 10820 10816 10816 10820 10819 10816 10813 10810 10805 10800 10797
10567 10590 10605 10617 10632 10654 10662 10673 10681 10683 10688 10692 10698 10704 10712 10720 10725 10730 10738 10744 10747 10749 10755 10763 10771 10774 10772 10775 10783 10793 10800 10802 10801 10801 10804 10804 10805 10799 10797 10796 10791 10789 10784 10782
10556 10566 10587 10610 10630 10637 10643 10656 10665 10669 10674 10678 10685 10693 10696 10706 10719 10728 10731 10731 10737 10734 10733 10736 10743 10750 10753 10759 10763 10769 10779 10788 10783 10781 10786 10787 10784 10781 10780 10779 10776 10772 10766 10764
10542 10557 10585 10598 10617 10616 10629 10641 10650 10654 10659 10663 10672 10678 10692 10702 10713 10719 10725 10729 10730 10726 10717 10716 10720 10726 10734 10741 10744 10745 10757 10764 10765 10763 10768 10770 10767 10766 10765 10763 10760 10756 10751 10745
10529 10547 10575 10594 10606 10616 10623 10629 10638 10642 10648 10654 10658 10670 10680 10689 10702 10710 10714 10758 10720 10709 10708 10700 10704 10705 10711 10717 10723 10729 10734 10741 10745 10749 10753 10751 10749 10748 10748 10744 10742 10737 10731 10728
10529 10547 10563 10579 10591 10602 10614 10619 10621 10626 10635 10641 10647 10658 10669 10676 10685 10697 10701 10708 10680 10698 10688 10686 10686 10690 10695 10699 10707 10712 10718 10723 10729 10733 10734 10734 10733 10733 10730 10728 10723 10717 10714 10709
10529 10544 10559 10574 10584 10589 10594 10601 10610 10616 10622 10628 10637 10646 10655 10664 10668 10665 10670 10669 10667 10667 10667 10671 10678 10681 10683 10687 10693 10699 10705 10709 10713 10715 10718 10719 10714 10714 10713 10713 10707 10705 10701 10697
10525 10538 10548 10557 10569 10576 10586 10593 10599 10605 10612 10617 10626 10635 10642 10645 10648 10649 10649 10652 10651 10653 10656 10664 10666 10669 10674 10678 10681 10685 10689 10695 10700 10705 10705 10698 10698 10697 10699 10698 10692 10689 10686 10678
10520 10526 10536 10546 10557 10566 10573 10582 10588 10594 10602 10607 10614 10621 10629 10634 10635 10635 10637 10638 10639 10642 10649 10655 10660 10666 10669 10669 10674 10675 10678 10680 10686 10685 10688 10685 10682 10681 10684 10682 10677 10675 10670 10661
10508 10523 10533 10543 10553 10560 10566 10574 10581 10587 10592 10597 10601 10605 10611 10615 10620 10624 10628 10629 10631 10635 10640 10648 10650 10656 10657 10660 10661 10663 10665 10667 10671 10672 10670 10667 10662 10661 10666 10667 10665 10663 10657 10652
10510 10519 10528 10536 10542 10551 10559 10567 10574 10580 10582 10586 10588 10592 10598 10603 10606 10609 10614 10618 10622 10626 10629 10629 10633 10639 10641 10644 10647 10648 10646 10648 10650 10651 10652 10649 10647 10649 10650 10652 10651 10648 10639 10637
10507 10514 10521 10528 10537 10544 10551 10559 10563 10567 10574 10577 10580 10583 10586 10591 10594 10598 10601 10605 10606 10610 10616 10618 10618 10621 10622 10624 10628 10629 10630 10629 10630 10630 10634 10634 10632 10629 10631 10633 10634 10629 10621 10619
10504 10512 10519 10526 10529 10535 10543 10548 10550 10554 10562 10570 10574 10577 10579 10584 10586 10589 10592 10594 10598 10600 10600 10602 10604 10605 10607 10611 10613 10614 10616 10615 10615 10611 10616 10617 10615 10615 10613 10612 10615 10612 10606 10597
10502 10505 10511 10517 10522 10529 10533 10538 10542 10545 10550 10557 10562 10564 10568 10573 10575 10577 10580 10583 10585 10586 10586 10587 10586 10588 10592 10595 10596 10598 10600 10601 10601 10601 10600 10600 10599 10598 10596 10592 10588 10590 10590 10583
10491 10494 10502 10506 10511 10516 10520 10524 10525 10530 10537 10542 10545 10547 10552 10555 10559 10562 10565 10566 10565 10567 10568 10570 10572 10575 10576 10578 10581 10581 10582 10583 10584 10583 10584 10582 10581 10577 10574 10573 10570 10565 10561 10558
10482 10486 10492 10494 10499 10504 10509 10510 10514 10517 10520 10525 10528 10532 10535 10538 10543 10545 10548 10549 10548 10550 10553 10554 10557 10559 10558 10558 10560 10563 10564 10564 10563 10563 10562 10563 10560 10555 10552 10549 10547 10547 10544 10540
10476 10480 10483 10487 10489 10491 10496 10499 10500 10503 10505 10507 10512 10515 10516 10525 10526 10524 10522 10527 10528 10531 10534 10534 10534 10536 10539 10540 10540 10542 10543 10542 10538 10536 10537 10537 10535 10530 10527 10524 10523 10516 10513 10512
10468 10470 10473 10475 10477 10481 10484 10483 10487 10491 10491 10491 10497 10501 10500 10505 10503 10502 10501 10504 10510 10511 10512 10510 10513 10515 10517 10517 10518 10517 10514 10516 10516 10513 10509 10510 10510 10507 10501 10500 10501 10497 10489 10485
10456 10456 10456 10459 10462 10465 10464 10464 10471 10471 10470 10469 10479 10484 10482 10480 10483 10482 10480 10479 10483 10485 10487 10489 10490 10492 10494 10493 10493 10493 10487 10488 10488 10488 10488 10488 10485 10483 10481 10476 10472 10473 10471 10467